contact:dominique.lefevre@mio.osupytheas.fr, maurice.libes@osupytheas.fr, didier.mallarino@osupytheas.fr
Project:EMSO http://www.emso-fr.org/EMSO-France
Depth: 2436.0 m
Title:EMSO Ligure Ouest : Data MII capteur AQUADOPP
Date,Latitude,Longitude,X_East,Y_North,Z_Up,Amplitude_X,Amplitude_Y,Amplitude_Z,Batterie,SoundSpeed,Heading,Pitch,Roll,Pressure,TIS,Speed,Direction
, degrees North, degrees East, m.s-1, m.s-1,m.s-1, 1, 1, 1, Volt, m.s-1, degree, degree, degree, dbar, degree_C, m.s-1, degree
2022-09-01T20:04:03,42.805,6.029,0.002,0.001,-0.022,100.0,102.0,100.0,13.3,1505.1,319.1,-0.8,1.8,2471.0,13.27,0.002,63.4
2022-09-01T20:07:03,42.805,6.029,0.011,-0.014,-0.022,101.0,101.0,100.0,13.3,1505.2,318.7,-0.7,1.8,2470.872,13.28,0.017,141.8
2022-09-01T20:10:03,42.805,6.029,0.008,-0.004,-0.031,101.0,101.0,101.0,13.3,1505.2,320.9,-0.7,1.8,2470.805,13.28,0.008,116.6
2022-09-01T20:13:03,42.805,6.029,0.016,-0.01,-0.023,101.0,99.0,100.0,13.4,1505.2,331.3,-0.7,1.8,2470.756,13.28,0.018,122.0
2022-09-01T20:16:03,42.805,6.029,0.011,0.0,0.001,101.0,100.0,99.0,13.4,1505.2,326.6,-0.8,1.8,2470.759,13.28,0.011,90.0
2022-09-01T20:19:03,42.805,6.029,0.011,-0.006,-0.017,102.0,103.0,100.0,13.4,1505.2,332.5,-0.8,1.8,2470.659,13.28,0.012,118.6
2022-09-01T20:22:03,42.805,6.029,0.01,-0.009,0.007,100.0,101.0,100.0,13.4,1505.2,325.2,-0.8,1.8,2470.652,13.28,0.013,132.0
2022-09-01T20:25:03,42.805,6.029,-0.013,0.008,-0.026,102.0,101.0,100.0,13.4,1505.2,328.2,-0.7,1.8,2470.702,13.28,0.015,301.6
2022-09-01T20:28:03,42.805,6.029,-0.004,0.013,-0.011,101.0,101.0,100.0,13.3,1505.2,327.5,-0.8,1.8,2470.656,13.29,0.013,342.9
2022-09-01T20:31:03,42.805,6.029,0.026,-0.019,-0.014,102.0,101.0,101.0,13.4,1505.2,322.9,-0.8,1.8,2470.617,13.29,0.032,126.2
2022-09-01T20:34:03,42.805,6.029,0.028,0.01,0.006,101.0,100.0,102.0,13.4,1505.2,324.7,-0.8,1.8,2470.605,13.29,0.029,70.4
2022-09-01T20:37:03,42.805,6.029,-0.005,0.03,-0.026,99.0,101.0,101.0,13.4,1505.2,320.2,-0.7,1.9,2470.645,13.29,0.03,350.5
2022-09-01T20:40:03,42.805,6.029,0.009,-0.003,-0.043,102.0,100.0,100.0,13.4,1505.2,328.2,-0.7,1.8,2470.652,13.29,0.009,108.4
2022-09-01T20:43:03,42.805,6.029,0.022,0.004,0.001,101.0,101.0,101.0,13.4,1505.2,327.1,-0.8,1.8,2470.642,13.29,0.022,79.7
2022-09-01T20:46:03,42.805,6.029,-0.003,-0.016,-0.042,101.0,101.0,101.0,13.4,1505.2,327.3,-0.8,1.8,2470.648,13.29,0.016,190.6
2022-09-01T20:49:03,42.805,6.029,0.01,0.0,-0.051,101.0,101.0,100.0,13.4,1505.2,322.7,-0.7,1.9,2470.663,13.29,0.01,90.0
2022-09-01T20:52:03,42.805,6.029,0.024,-0.009,-0.035,101.0,101.0,101.0,13.4,1505.2,319.4,-0.7,1.8,2470.635,13.29,0.025,110.6
2022-09-01T20:55:03,42.805,6.029,0.008,0.0,-0.008,101.0,101.0,100.0,13.4,1505.2,332.9,-0.8,1.8,2470.663,13.29,0.008,90.0
2022-09-01T20:58:03,42.805,6.029,0.009,0.006,-0.02,100.0,101.0,100.0,13.3,1505.2,321.0,-0.8,1.8,2470.681,13.29,0.01,56.3
2022-09-01T21:04:03,42.805,6.029,0.0,-0.002,-0.013,101.0,101.0,101.0,13.3,1505.2,332.2,-0.8,1.8,2470.669,13.28,0.002,180.0
2022-09-01T21:07:03,42.805,6.029,0.013,0.001,-0.019,101.0,101.0,100.0,13.4,1505.2,319.9,-0.8,1.8,2470.742,13.28,0.013,85.6
2022-09-01T21:10:03,42.805,6.029,0.009,0.005,-0.006,103.0,101.0,100.0,13.4,1505.2,324.2,-0.8,1.8,2470.708,13.28,0.01,60.9
2022-09-01T21:13:03,42.805,6.029,0.002,0.008,-0.016,102.0,101.0,100.0,13.4,1505.2,323.7,-0.7,1.8,2470.692,13.28,0.008,14.0
2022-09-01T21:16:03,42.805,6.029,0.011,0.002,-0.032,101.0,100.0,102.0,13.4,1505.2,326.7,-0.7,1.8,2470.647,13.29,0.011,79.7
2022-09-01T21:19:03,42.805,6.029,-0.005,0.015,0.005,102.0,100.0,100.0,13.4,1505.2,319.2,-0.7,1.8,2470.68,13.29,0.015,341.6
2022-09-01T21:22:03,42.805,6.029,-0.002,0.04,0.006,101.0,101.0,100.0,13.4,1505.2,332.2,-0.8,1.8,2470.703,13.29,0.04,357.1
2022-09-01T21:25:03,42.805,6.029,-0.002,0.005,-0.015,101.0,100.0,101.0,13.4,1505.2,327.0,-0.8,1.8,2470.693,13.29,0.005,338.2
2022-09-01T21:28:03,42.805,6.029,0.006,0.006,0.015,102.0,103.0,100.0,13.4,1505.2,326.0,-0.7,1.8,2470.697,13.29,0.008,45.0
2022-09-01T21:31:03,42.805,6.029,0.017,0.014,0.01,102.0,102.0,99.0,13.3,1505.2,328.0,-0.8,1.8,2470.691,13.29,0.022,50.5
2022-09-01T21:34:03,42.805,6.029,-0.002,-0.01,-0.009,101.0,100.0,101.0,13.4,1505.2,318.8,-0.8,1.8,2470.651,13.29,0.01,191.3
2022-09-01T21:37:03,42.805,6.029,0.03,0.004,-0.014,100.0,101.0,101.0,13.4,1505.2,324.1,-0.7,1.8,2470.672,13.29,0.03,82.4
2022-09-01T21:40:03,42.805,6.029,0.012,0.008,-0.008,100.0,104.0,99.0,13.3,1505.2,330.0,-0.8,1.8,2470.707,13.29,0.014,56.3
2022-09-01T21:43:03,42.805,6.029,0.005,0.021,0.004,101.0,102.0,101.0,13.4,1505.2,333.7,-0.8,1.8,2470.687,13.29,0.021,13.4
2022-09-01T21:46:03,42.805,6.029,0.021,0.011,0.01,101.0,101.0,100.0,13.3,1505.2,333.4,-0.7,1.8,2470.699,13.29,0.023,62.4
2022-09-01T21:49:03,42.805,6.029,0.006,0.004,-0.017,102.0,102.0,101.0,13.4,1505.2,328.5,-0.8,1.8,2470.684,13.29,0.007,56.3
2022-09-01T21:52:03,42.805,6.029,0.004,0.018,0.002,102.0,102.0,100.0,13.3,1505.2,328.3,-0.8,1.8,2470.664,13.29,0.018,12.5
2022-09-01T21:55:03,42.805,6.029,-0.004,-0.007,-0.029,102.0,101.0,100.0,13.4,1505.2,331.6,-0.7,1.8,2470.69,13.29,0.008,209.7
2022-09-01T21:58:03,42.805,6.029,0.013,0.0,-0.052,101.0,102.0,100.0,13.4,1505.2,320.3,-0.8,1.8,2470.681,13.29,0.013,90.0
2022-09-01T22:04:03,42.805,6.029,0.021,-0.01,-0.027,102.0,102.0,100.0,13.4,1505.2,328.9,-0.7,1.8,2470.746,13.28,0.023,115.5
2022-09-01T22:07:03,42.805,6.029,0.029,-0.001,-0.008,101.0,102.0,101.0,13.4,1505.2,322.4,-0.8,1.8,2470.742,13.28,0.029,92.0
2022-09-01T22:10:03,42.805,6.029,-0.014,-0.003,-0.026,102.0,101.0,100.0,13.4,1505.2,327.8,-0.8,1.8,2470.747,13.28,0.014,257.9
2022-09-01T22:13:03,42.805,6.029,-0.004,0.008,-0.024,102.0,101.0,101.0,13.3,1505.2,324.3,-0.8,1.8,2470.668,13.28,0.008,333.4
2022-09-01T22:16:03,42.805,6.029,0.006,0.006,-0.009,101.0,101.0,100.0,13.4,1505.2,325.1,-0.8,1.8,2470.712,13.29,0.008,45.0
2022-09-01T22:19:03,42.805,6.029,0.008,-0.012,-0.029,99.0,101.0,101.0,13.4,1505.2,327.0,-0.7,1.8,2470.697,13.29,0.014,146.3
2022-09-01T22:22:03,42.805,6.029,0.012,0.001,-0.011,103.0,101.0,101.0,13.3,1505.2,328.0,-0.8,1.8,2470.695,13.29,0.012,85.2
2022-09-01T22:25:03,42.805,6.029,0.017,0.0,-0.032,101.0,103.0,101.0,13.4,1505.2,324.5,-0.8,1.8,2470.7,13.29,0.017,90.0
2022-09-01T22:28:03,42.805,6.029,0.0,0.013,-0.011,101.0,101.0,100.0,13.3,1505.2,327.6,-0.8,1.8,2470.686,13.29,0.013,0.0
2022-09-01T22:31:03,42.805,6.029,0.009,-0.01,-0.028,102.0,101.0,100.0,13.4,1505.2,330.1,-0.8,1.8,2470.69,13.29,0.013,138.0
2022-09-01T22:34:03,42.805,6.029,0.026,-0.003,-0.008,102.0,101.0,101.0,13.4,1505.2,321.8,-0.8,1.8,2470.673,13.29,0.026,96.6
2022-09-01T22:37:03,42.805,6.029,0.007,0.011,-0.031,101.0,101.0,100.0,13.4,1505.2,324.1,-0.7,1.8,2470.708,13.29,0.013,32.5
2022-09-01T22:40:03,42.805,6.029,-0.001,-0.003,-0.03,102.0,101.0,100.0,13.4,1505.2,331.8,-0.8,1.8,2470.68,13.29,0.003,198.4
2022-09-01T22:43:03,42.805,6.029,0.004,-0.004,-0.02,101.0,101.0,100.0,13.3,1505.2,331.2,-0.8,1.8,2470.686,13.29,0.005,135.0
2022-09-01T22:46:03,42.805,6.029,0.033,0.001,-0.034,102.0,102.0,100.0,13.3,1505.2,331.4,-0.8,1.8,2470.658,13.29,0.033,88.3
2022-09-01T22:49:03,42.805,6.029,0.007,0.015,-0.027,101.0,101.0,101.0,13.3,1505.2,322.2,-0.8,1.8,2470.656,13.29,0.016,25.0
2022-09-01T22:52:03,42.805,6.029,0.003,0.001,-0.011,102.0,102.0,101.0,13.4,1505.2,317.8,-0.8,1.8,2470.69,13.29,0.003,71.6
2022-09-01T22:55:03,42.805,6.029,0.004,-0.008,-0.035,102.0,100.0,100.0,13.4,1505.2,324.4,-0.7,1.9,2470.662,13.29,0.008,153.4
2022-09-01T22:58:03,42.805,6.029,0.005,0.009,-0.026,102.0,102.0,101.0,13.3,1505.2,324.7,-0.8,1.8,2470.675,13.29,0.01,29.1
2022-09-01T23:04:03,42.805,6.029,0.02,0.009,0.0,101.0,101.0,100.0,13.4,1505.2,328.5,-0.7,1.8,2470.708,13.28,0.021,65.8
2022-09-01T23:07:03,42.805,6.029,0.007,0.004,-0.042,101.0,101.0,100.0,13.4,1505.2,323.2,-0.8,1.7,2470.679,13.28,0.008,60.3
2022-09-01T23:10:03,42.805,6.029,0.032,0.007,-0.001,102.0,100.0,101.0,13.4,1505.2,318.8,-0.8,1.8,2470.722,13.28,0.032,77.7
2022-09-01T23:13:03,42.805,6.029,-0.008,0.005,-0.026,100.0,103.0,102.0,13.3,1505.2,324.2,-0.7,1.8,2470.721,13.28,0.009,302.0
2022-09-01T23:16:03,42.805,6.029,0.019,0.001,-0.02,101.0,101.0,101.0,13.3,1505.2,322.1,-0.8,1.8,2470.671,13.29,0.019,87.0
2022-09-01T23:19:03,42.805,6.029,0.019,0.018,0.007,102.0,102.0,101.0,13.4,1505.2,323.5,-0.7,1.8,2470.69,13.29,0.026,46.5
2022-09-01T23:22:03,42.805,6.029,0.002,-0.004,-0.02,101.0,102.0,100.0,13.4,1505.2,327.9,-0.8,1.8,2470.686,13.29,0.004,153.4
2022-09-01T23:25:03,42.805,6.029,0.004,-0.01,-0.019,100.0,102.0,100.0,13.3,1505.2,334.5,-0.7,1.8,2470.714,13.29,0.01,158.2
2022-09-01T23:28:03,42.805,6.029,-0.01,0.001,-0.059,102.0,102.0,100.0,13.4,1505.2,324.7,-0.8,1.8,2470.677,13.29,0.01,275.7
2022-09-01T23:31:03,42.805,6.029,0.005,-0.017,-0.031,102.0,100.0,100.0,13.3,1505.2,323.0,-0.8,1.8,2470.67,13.29,0.017,163.6
2022-09-01T23:34:03,42.805,6.029,-0.013,-0.007,-0.019,102.0,100.0,101.0,13.4,1505.2,323.2,-0.8,1.9,2470.647,13.29,0.014,241.7
2022-09-01T23:37:03,42.805,6.029,0.022,-0.009,-0.031,102.0,103.0,100.0,13.4,1505.2,330.2,-0.8,1.8,2470.654,13.29,0.023,112.2
2022-09-01T23:40:03,42.805,6.029,0.009,0.02,-0.021,102.0,102.0,99.0,13.4,1505.2,330.2,-0.8,1.8,2470.664,13.29,0.021,24.2
2022-09-01T23:43:03,42.805,6.029,0.007,0.006,-0.012,101.0,100.0,102.0,13.4,1505.2,328.5,-0.8,1.8,2470.659,13.29,0.009,49.4
2022-09-01T23:46:03,42.805,6.029,0.027,0.03,0.056,101.0,101.0,100.0,13.4,1505.2,334.5,-0.8,1.8,2470.602,13.29,0.04,42.0
2022-09-01T23:49:03,42.805,6.029,-0.008,0.018,0.004,101.0,104.0,102.0,13.4,1505.2,318.0,-0.8,1.8,2470.652,13.29,0.019,336.0
2022-09-01T23:52:03,42.805,6.029,0.021,-0.016,0.01,101.0,101.0,101.0,13.4,1505.2,330.4,-0.7,1.8,2470.646,13.29,0.026,127.3
2022-09-01T23:55:03,42.805,6.029,0.007,0.019,0.008,102.0,101.0,100.0,13.4,1505.2,331.6,-0.7,1.8,2470.674,13.29,0.02,20.2
2022-09-01T23:58:03,42.805,6.029,0.03,-0.005,-0.011,100.0,100.0,102.0,13.4,1505.2,316.9,-0.8,1.8,2470.672,13.29,0.03,99.5
